Wind_Speed
8 8 8 8 8 8 8 9 10 11 11 12 12 11 11 11 11 10 10 9 9 8 8 7 7 6 5 5 5 5 5 5 5 5 5 5 6 6 6 6 6 6 5
10 10 9 9 9 9 9 9 10 10 11 11 12 12 12 12 11 11 10 10 9 8 8 8 7 6 5 5 5 4 4 4 3 3 3 3 4 4 5 5 5 5 4
11 11 10 10 10 10 10 10 10 11 11 12 12 12 13 13 12 12 11 10 9 9 8 8 7 7 6 5 5 4 4 3 3 2 2 2 2 3 3 3 4 4 3
12 11 11 11 11 11 10 10 10 11 12 12 13 13 13 13 13 12 12 11 10 9 9 8 8 7 7 6 6 5 5 4 3 2 1 1 1 1 2 2 2 3 3
13 12 12 12 11 11 11 11 11 12 13 13 14 14 14 14 13 13 13 12 11 11 10 10 9 9 8 7 7 7 6 5 5 4 3 2 1 1 0 0 1 2 2
13 12 12 12 12 12 12 13 13 13 14 14 15 15 15 15 15 15 14 13 13 12 12 11 11 11 10 10 10 9 8 7 7 6 5 4 3 2 2 1 1 0 1
14 14 13 13 13 13 13 14 14 15 16 16 17 17 17 17 17 16 16 15 15 14 14 13 13 13 13 12 12 12 11 10 9 8 7 7 6 5 4 3 3 2 2
15 15 14 14 14 14 15 16 17 17 18 18 19 19 19 19 19 18 18 17 16 16 16 15 15 15 15 15 15 15 14 13 12 11 10 9 8 7 6 5 5 4 4
16 16 16 16 16 16 17 17 18 19 20 20 21 21 21 21 21 20 20 19 19 18 18 18 17 17 17 17 17 17 17 16 15 14 13 12 11 10 9 8 7 6 6
19 18 18 18 18 18 18 18 20 21 21 21 22 23 23 23 24 23 23 22 22 21 20 19 19 19 19 18 19 19 19 19 18 16 15 14 14 12 12 11 10 9 9
21 20 20 20 20 21 20 21 22 22 23 23 24 25 25 27 27 27 26 26 25 24 22 21 22 21 20 20 20 20 20 20 20 19 17 16 16 15 15 14 13 12 11
23 23 22 22 23 23 24 24 25 25 25 26 26 27 28 29 30 30 29 29 28 27 25 24 24 23 22 22 22 22 23 23 22 20 19 19 18 17 17 16 16 15 14
25 25 25 25 25 26 27 27 28 28 28 29 30 30 31 32 31 32 32 31 31 31 29 28 27 25 24 24 24 24 24 24 24 23 21 21 21 20 19 19 18 17 17
27 28 28 28 28 29 30 30 30 31 32 32 32 33 33 34 33 33 34 34 33 33 32 32 30 28 27 26 25 25 25 25 24 24 22 22 22 22 21 21 20 20 20
28 29 30 30 31 32 33 33 33 34 34 35 35 35 35 36 35 35 35 36 35 35 35 33 32 30 29 28 27 26 26 26 26 25 23 21 22 22 21 22 22 21 21
30 31 31 32 33 33 34 35 36 37 38 38 37 36 38 39 38 37 37 38 37 38 37 35 34 32 30 29 28 26 27 27 27 25 24 23 22 22 22 22 22 22 22
32 32 33 33 34 35 36 37 39 39 39 40 39 39 40 41 40 38 38 38 38 39 37 35 33 33 31 31 29 28 27 26 28 27 26 24 23 23 23 22 22 22 22
32 33 33 34 34 36 37 38 39 40 40 40 41 40 41 41 40 39 38 37 37 36 36 34 32 33 33 32 30 29 28 28 27 26 27 26 25 24 24 23 22 23 23
32 33 34 35 36 37 38 39 40 40 40 40 40 41 40 40 39 38 37 37 37 36 36 34 33 32 32 33 32 30 30 29 27 27 27 26 26 24 23 23 22 22 22
30 32 34 36 37 38 39 40 40 41 41 41 41 40 40 39 37 36 35 36 35 34 34 33 31 30 31 32 32 30 29 29 28 28 28 27 26 24 23 23 22 22 21
29 31 32 34 36 37 39 39 39 40 40 40 40 39 39 38 37 35 34 33 33 33 32 33 31 29 30 31 31 30 30 29 29 29 27 27 26 24 24 22 22 22 22
29 31 32 34 35 36 37 39 40 40 40 39 39 39 38 38 37 36 34 33 33 33 32 32 31 30 30 31 31 31 30 30 30 29 29 28 28 26 24 23 23 22 22
29 31 33 34 35 37 38 39 40 41 40 41 40 40 39 39 38 37 37 37 36 35 34 32 31 30 30 30 31 32 32 31 29 29 29 30 29 28 27 26 24 23 22
30 32 33 35 37 39 40 40 40 41 42 42 42 41 41 40 40 40 40 39 37 36 36 34 34 33 31 31 32 33 33 32 31 30 30 30 30 30 29 27 26 25 24
31 33 35 36 38 39 40 41 42 42 43 44 44 44 43 43 42 41 41 40 40 39 37 36 35 35 34 34 33 33 33 35 34 32 31 31 30 31 30 29 28 27 25
33 35 36 37 38 39 41 42 43 44 45 45 46 46 46 45 45 44 43 42 42 41 41 40 39 38 37 37 36 35 35 36 36 35 34 32 31 32 32 32 30 29 27
Wind_Direction
321 326 330 332 334 339 344 347 350 351 351 350 349 349 350 352 353 354 355 355 355 356 357 359 360 5 10 15 23 32 41 49 53 57 63 66 69 73 75 76 79 85 89
317 321 321 321 323 328 333 338 342 344 344 343 344 344 344 345 347 348 349 347 344 345 348 348 348 349 352 354 359 6 16 29 39 46 52 59 65 70 74 76 78 83 88
313 314 314 314 316 320 324 329 334 337 338 338 338 339 341 341 341 340 340 339 336 333 334 334 332 333 333 333 334 337 341 352 6 19 35 46 58 65 71 78 82 82 86
309 309 309 308 310 315 319 323 328 332 333 334 333 334 335 336 336 335 333 331 327 323 320 317 316 314 314 313 311 311 313 314 318 323 333 359 32 54 64 73 81 85 86
307 306 306 306 307 311 316 319 323 326 328 328 328 328 329 330 329 328 325 323 320 315 311 307 303 300 297 296 295 292 291 290 288 288 293 285 276 273 250 76 83 88 93
307 307 309 308 309 313 315 316 319 321 322 322 323 322 322 323 321 319 318 316 313 308 305 301 295 291 288 285 284 283 281 278 274 271 268 265 262 259 253 247 232 167 128
304 306 309 309 311 314 315 315 316 317 317 316 316 316 315 315 314 313 311 309 307 303 299 294 290 286 283 280 278 277 275 274 271 265 261 260 258 257 253 249 246 239 237
304 304 307 307 308 309 311 311 312 314 313 312 313 313 311 310 309 309 308 306 302 299 294 290 286 282 279 277 275 274 272 271 270 266 258 257 255 252 250 247 245 242 241
305 305 305 306 308 308 309 309 310 311 311 309 310 310 309 308 307 306 305 302 300 295 291 288 285 281 276 273 272 271 270 269 268 265 259 256 255 250 247 245 243 242 242
306 307 306 308 309 309 307 307 309 310 310 308 307 308 307 305 304 303 300 298 296 294 289 286 283 279 275 272 270 269 268 268 266 266 262 256 254 250 246 243 241 241 241
303 304 304 306 307 308 308 306 307 308 308 307 306 305 304 302 301 299 298 296 292 290 286 282 280 277 273 270 268 266 266 266 265 264 260 256 254 251 247 244 242 242 241
301 300 301 302 304 305 306 306 305 305 305 304 305 304 302 300 298 295 295 293 289 286 283 280 277 274 271 268 267 265 264 264 265 262 259 255 253 251 247 244 243 242 242
298 298 298 300 301 301 302 304 303 303 302 302 302 301 301 299 297 294 293 291 287 284 280 276 273 271 268 265 265 265 264 263 263 259 258 254 251 249 247 245 244 243 242
294 295 296 298 299 298 300 301 301 301 300 299 300 300 300 298 295 294 292 289 287 282 278 274 269 266 264 262 261 261 261 262 261 259 257 253 249 247 245 243 243 243 242
289 292 294 295 296 295 296 297 298 298 298 298 297 297 296 296 294 293 292 290 288 284 281 276 269 265 263 261 260 259 258 257 258 257 254 252 249 246 244 243 243 244 243
288 290 292 292 293 293 294 295 296 295 294 295 293 294 295 295 293 292 290 289 286 283 280 276 273 267 262 260 258 260 258 255 254 254 253 249 247 247 245 242 243 243 243
287 288 289 288 289 291 292 293 295 294 292 293 292 292 293 293 291 291 290 288 284 281 277 275 272 267 261 258 256 257 257 254 254 253 253 251 246 246 245 242 241 241 241
284 285 287 288 289 290 291 292 293 293 293 293 292 292 293 293 291 289 287 287 285 281 276 274 273 269 263 258 255 255 256 256 254 251 250 249 246 244 244 241 241 240 240
282 284 286 287 288 289 289 289 290 290 291 292 292 291 291 293 292 289 285 285 284 278 274 273 272 269 263 258 254 255 255 255 253 250 248 247 243 241 241 239 238 238 239
283 284 285 286 286 288 288 288 289 290 291 292 290 290 292 292 291 288 285 283 280 276 272 271 269 263 260 256 254 253 254 252 250 249 247 245 242 238 237 236 236 236 236
286 286 287 287 287 288 290 290 290 291 292 292 290 291 291 291 290 287 285 281 279 275 272 270 265 258 257 254 252 253 251 251 247 247 245 243 240 236 237 234 233 234 234
288 288 288 290 290 291 291 291 290 290 291 291 291 290 290 290 288 285 282 279 278 275 270 268 265 259 255 253 251 252 251 250 244 244 243 241 238 236 234 233 232 232 233
293 292 292 292 293 293 293 292 291 291 292 292 292 291 290 289 288 285 283 280 278 275 271 267 264 260 256 253 250 249 247 246 243 243 241 239 236 234 232 230 230 230 231
297 296 296 296 296 296 296 296 295 294 293 293 292 291 289 288 287 285 283 280 277 274 270 266 264 259 256 252 251 248 246 244 242 241 240 238 235 233 232 231 231 230 230
301 301 300 300 299 298 298 297 296 295 295 294 293 291 290 288 285 284 282 279 276 274 270 266 262 259 256 253 251 247 245 244 241 239 238 236 235 233 231 230 230 230 228
306 305 304 303 302 301 300 298 297 296 295 294 293 292 290 288 285 283 281 278 276 275 271 267 262 258 255 252 250 249 246 244 241 239 237 235 234 233 231 230 229 228 227
Height
5912 5911 5910 5910 5909 5908 5908 5907 5906 5906 5905 5904 5903 5903 5902 5901 5900 5899 5898 5898 5897 5896 5895 5895 5894 5894 5893 5892 5892 5891 5891 5891 5891 5891 5891 5891 5891 5891 5892 5892 5893 5893 5894
5911 5910 5910 5909 5909 5908 5907 5907 5906 5905 5905 5904 5903 5903 5902 5901 5900 5899 5898 5898 5897 5896 5896 5895 5894 5894 5893 5893 5892 5892 5892 5891 5891 5891 5892 5892 5892 5892 5893 5893 5894 5894 5895
5910 5910 5909 5908 5908 5907 5907 5906 5905 5905 5904 5904 5903 5902 5901 5901 5900 5899 5898 5897 5897 5896 5895 5895 5894 5894 5893 5893 5892 5892 5892 5892 5892 5892 5892 5892 5893 5893 5894 5894 5895 5895 5896
5909 5909 5908 5908 5907 5906 5906 5905 5905 5904 5904 5903 5902 5901 5901 5900 5899 5898 5898 5897 5896 5895 5895 5894 5894 5894 5893 5893 5892 5892 5892 5892 5892 5892 5892 5893 5893 5894 5894 5895 5895 5896 5897
5909 5908 5907 5906 5906 5905 5904 5904 5903 5903 5902 5902 5901 5900 5900 5899 5898 5897 5897 5896 5895 5894 5894 5893 5893 5893 5893 5892 5892 5892 5892 5892 5892 5892 5892 5893 5893 5894 5894 5895 5896 5896 5897
5908 5907 5906 5905 5905 5904 5903 5902 5902 5901 5901 5900 5899 5899 5898 5897 5896 5896 5895 5894 5894 5893 5893 5892 5892 5892 5891 5891 5891 5891 5891 5891 5891 5892 5892 5892 5893 5893 5894 5895 5896 5897 5897
5906 5905 5905 5904 5903 5902 5901 5901 5900 5899 5898 5898 5897 5896 5896 5895 5894 5893 5893 5892 5892 5891 5891 5890 5890 5890 5890 5889 5889 5889 5889 5890 5890 5891 5891 5891 5892 5893 5894 5894 5895 5896 5897
5904 5903 5902 5902 5901 5900 5899 5899 5898 5897 5896 5895 5894 5894 5893 5892 5891 5891 5890 5889 5889 5889 5888 5888 5888 5887 5887 5887 5887 5887 5887 5888 5888 5889 5890 5890 5891 5892 5892 5893 5895 5896 5897
5901 5900 5899 5899 5898 5898 5897 5896 5895 5894 5893 5892 5891 5890 5890 5889 5888 5887 5886 5886 5886 5885 5885 5885 5884 5884 5884 5884 5884 5885 5885 5885 5885 5887 5888 5889 5889 5890 5891 5892 5893 5895 5896
5897 5898 5897 5896 5895 5894 5893 5892 5892 5891 5889 5888 5887 5886 5886 5885 5884 5883 5882 5882 5881 5881 5881 5881 5881 5881 5881 5881 5881 5881 5882 5882 5882 5884 5885 5886 5887 5888 5889 5890 5891 5893 5894
5893 5894 5893 5893 5892 5891 5890 5889 5888 5887 5886 5885 5883 5882 5881 5880 5879 5878 5878 5877 5877 5876 5876 5876 5876 5876 5877 5877 5877 5877 5878 5878 5879 5880 5882 5883 5884 5885 5886 5888 5889 5891 5892
5890 5889 5889 5889 5888 5887 5886 5885 5884 5883 5881 5880 5879 5877 5876 5874 5873 5872 5872 5872 5871 5871 5870 5871 5871 5871 5872 5872 5873 5873 5874 5874 5875 5876 5878 5879 5880 5882 5883 5885 5886 5888 5890
5887 5885 5885 5885 5884 5882 5881 5881 5879 5878 5876 5875 5873 5872 5870 5868 5867 5865 5865 5865 5864 5864 5864 5864 5865 5865 5866 5867 5868 5869 5869 5869 5870 5871 5873 5875 5876 5878 5879 5881 5883 5885 5887
5883 5881 5880 5880 5879 5877 5876 5875 5874 5872 5871 5869 5867 5866 5864 5862 5861 5859 5858 5857 5857 5857 5857 5857 5857 5858 5859 5860 5861 5863 5864 5864 5864 5866 5869 5870 5871 5873 5875 5877 5879 5881 5883
5878 5877 5876 5874 5874 5873 5871 5869 5868 5866 5864 5862 5860 5858 5856 5855 5854 5852 5851 5850 5849 5849 5849 5849 5849 5850 5852 5853 5855 5857 5858 5859 5860 5861 5863 5865 5866 5867 5870 5873 5875 5877 5879
5871 5872 5871 5869 5868 5867 5865 5863 5861 5859 5857 5855 5852 5850 5850 5848 5846 5845 5844 5842 5841 5840 5840 5841 5842 5843 5844 5846 5849 5850 5852 5853 5854 5856 5858 5860 5861 5863 5866 5868 5871 5873 5875
5866 5866 5864 5863 5862 5861 5859 5857 5855 5852 5850 5848 5845 5843 5841 5840 5838 5837 5836 5834 5833 5832 5832 5832 5834 5835 5836 5838 5841 5843 5844 5845 5847 5849 5851 5854 5856 5858 5861 5863 5866 5868 5870
5861 5860 5858 5857 5856 5855 5853 5851 5848 5845 5843 5841 5838 5836 5834 5831 5830 5829 5827 5826 5824 5823 5824 5825 5826 5827 5828 5830 5833 5836 5838 5840 5841 5843 5845 5848 5850 5852 5855 5858 5861 5863 5866
5855 5854 5852 5851 5849 5847 5845 5843 5840 5838 5835 5833 5831 5828 5826 5823 5821 5820 5819 5818 5816 5816 5817 5818 5818 5819 5820 5823 5825 5828 5830 5833 5835 5837 5841 5843 5845 5847 5850 5853 5855 5858 5861
5850 5848 5847 5845 5843 5840 5838 5835 5832 5830 5827 5825 5823 5820 5818 5815 5812 5811 5811 5809 5808 5808 5809 5809 5810 5811 5812 5814 5817 5820 5823 5826 5828 5831 5834 5837 5839 5842 5844 5847 5850 5853 5856
5844 5842 5840 5838 5836 5833 5830 5827 5824 5822 5819 5816 5814 5812 5810 5808 5805 5804 5803 5801 5800 5800 5801 5802 5802 5803 5805 5807 5810 5813 5816 5818 5821 5824 5827 5829 5833 5836 5839 5842 5845 5848 5851
5838 5836 5834 5831 5829 5826 5822 5819 5816 5814 5811 5808 5806 5804 5802 5800 5798 5796 5795 5794 5793 5792 5793 5794 5794 5795 5798 5800 5803 5805 5808 5811 5814 5817 5820 5824 5827 5830 5833 5836 5840 5843 5846
5832 5829 5827 5824 5821 5818 5814 5811 5808 5805 5802 5799 5797 5795 5793 5791 5790 5788 5787 5787 5786 5785 5786 5787 5787 5788 5790 5793 5795 5798 5801 5804 5807 5811 5813 5817 5820 5824 5827 5830 5834 5837 5840
5825 5822 5819 5816 5813 5809 5806 5802 5799 5795 5793 5790 5787 5785 5784 5782 5780 5779 5778 5778 5777 5777 5778 5779 5780 5781 5782 5785 5787 5790 5794 5797 5800 5804 5807 5810 5813 5817 5820 5823 5827 5831 5835
5818 5815 5811 5808 5804 5800 5796 5792 5789 5785 5782 5779 5776 5774 5772 5771 5769 5768 5768 5767 5767 5768 5768 5769 5771 5772 5774 5776 5779 5782 5785 5788 5792 5795 5799 5803 5806 5810 5814 5818 5822 5826 5829
5811 5807 5803 5799 5796 5791 5787 5782 5778 5775 5771 5768 5765 5762 5760 5758 5757 5756 5756 5756 5756 5757 5758 5759 5761 5762 5764 5767 5770 5773 5776 5780 5783 5787 5791 5795 5798 5802 5807 5811 5816 5820 5823